Darstellungsparameter: Aktuell verwendete Einstellungen:
Skalierung der Graphiken ... ?
xyx+y,   Skalierungsfaktor:      Skalierung: Modus: x, Faktor: 1
Darstellungszeitraum ... ?
Vom - - bis: - -   Zeitraum: 23.11.2019 - 24.11.2019
Min/Max/Avg-Anzeige ... ?
Zeige MMA aktuell
Zeige MMA Monat
Zeige MMA alles
Zeige --A aktuell
Zeige --A Monat
Zeige --A alles
Keine MMA-Anzeige
MMA:
Average (ber die Originaldaten)
MMA-Basis: 23.11.2019 - 24.11.2019
Quicknavigation für Darstellung... ?
Tage:      1T, 2T, 3T, 5T -1T -2T -3T -5T +1T +2T +3T +5T
Wochen: 1W, 2W, 3W -1W -2W -3W +1W +2W +3W
Monate: 1M, 3M, 6M -1M -3M -6M +1M +3M +6M
Jahre:    1J, 3J, 5J, 10J -1J -3J -5J -10J +1J +3J +5J +10J
Nutze für die Darstellung ... ?
Originaldaten oder Mittelwerte auf ...
Stundenbasis Tagesbasis Wochenbasis
Monatsbasis Jahresbasis      Datenbasis: Original-Daten
Darstellen als:
Statistik (Auto) Statistik J:M      Darstellung:
Zur Graphik,    zurück zur Übersicht aller Sensoren.
 
Tabellarische Datenbersicht: ?
 
Sensor: Nr:Datum:Temp:Abs-Feuchte:Windchill:Wind:
Aussen-T/F 1 23-11-2019 00:00:00 4.7 C 6.13 g/m*3 4.7 C 1.6 km/h
2 23-11-2019 00:05:00 4.7 C 6.19 g/m*3 4.7 C 1.6 km/h
3 23-11-2019 00:10:00 4.7 C 6.19 g/m*3 4.7 C 1.6 km/h
4 23-11-2019 00:15:00 4.7 C 6.13 g/m*3 4.7 C 3.2 km/h
5 23-11-2019 00:20:00 4.7 C 6.13 g/m*3 4.7 C 1.6 km/h
6 23-11-2019 00:25:00 4.7 C 6.19 g/m*3 4.7 C 3.2 km/h
7 23-11-2019 00:30:00 4.7 C 6.13 g/m*3 4.7 C 1.6 km/h
8 23-11-2019 00:35:00 4.7 C 6.13 g/m*3 3.25 C 6.4 km/h
9 23-11-2019 00:40:00 4.7 C 6.13 g/m*3 4.7 C 1.6 km/h
10 23-11-2019 00:45:00 4.8 C 6.17 g/m*3 4.8 C 0 km/h
11 23-11-2019 00:50:00 4.8 C 6.17 g/m*3 4.8 C 3.2 km/h
12 23-11-2019 00:55:00 4.8 C 6.17 g/m*3 4.8 C 4.8 km/h
13 23-11-2019 01:00:00 4.8 C 6.17 g/m*3 4.8 C 4.8 km/h
14 23-11-2019 01:05:00 4.8 C 6.17 g/m*3 2.87 C 8.1 km/h
15 23-11-2019 01:10:00 4.8 C 6.1 g/m*3 2.15 C 11.3 km/h
16 23-11-2019 01:15:00 4.9 C 6.14 g/m*3 3.48 C 6.4 km/h
17 23-11-2019 01:20:00 4.9 C 6.14 g/m*3 4.9 C 1.6 km/h
18 23-11-2019 01:25:00 4.9 C 6.14 g/m*3 4.9 C 3.2 km/h
19 23-11-2019 01:30:00 4.9 C 6.21 g/m*3 4.9 C 1.6 km/h
20 23-11-2019 01:35:00 4.8 C 6.17 g/m*3 4.8 C 0 km/h
21 23-11-2019 01:40:00 4.8 C 6.1 g/m*3 4.8 C 3.2 km/h
22 23-11-2019 01:45:00 4.8 C 6.17 g/m*3 4.8 C 0 km/h
23 23-11-2019 01:50:00 4.8 C 6.17 g/m*3 4.8 C 4.8 km/h
24 23-11-2019 01:55:00 4.8 C 6.17 g/m*3 4.8 C 1.6 km/h
25 23-11-2019 02:00:00 4.8 C 6.1 g/m*3 4.8 C 4.8 km/h
Sensor: Nr:Datum:Temp:Abs-Feuchte:Windchill:Wind:
Aussen-T/F 26 23-11-2019 02:05:00 4.8 C 6.1 g/m*3 4.8 C 3.2 km/h
27 23-11-2019 02:10:00 4.9 C 6.14 g/m*3 4.9 C 1.6 km/h
28 23-11-2019 02:15:00 4.9 C 6.14 g/m*3 4.9 C 3.2 km/h
29 23-11-2019 02:20:00 4.9 C 6.14 g/m*3 4.9 C 0 km/h
30 23-11-2019 02:25:00 4.8 C 6.17 g/m*3 4.8 C 0 km/h
31 23-11-2019 02:30:00 4.8 C 6.17 g/m*3 4.8 C 0 km/h
32 23-11-2019 02:35:00 4.8 C 6.17 g/m*3 4.8 C 0 km/h
33 23-11-2019 02:40:00 4.7 C 6.13 g/m*3 4.7 C 0 km/h
34 23-11-2019 02:45:00 4.7 C 6.13 g/m*3 4.7 C 0 km/h
35 23-11-2019 02:50:00 4.6 C 6.09 g/m*3 4.6 C 0 km/h
36 23-11-2019 02:55:00 4.6 C 6.09 g/m*3 4.6 C 0 km/h
37 23-11-2019 03:00:00 4.6 C 6.09 g/m*3 4.6 C 0 km/h
38 23-11-2019 03:05:00 4.5 C 6.11 g/m*3 4.5 C 3.2 km/h
39 23-11-2019 03:10:00 4.4 C 6.07 g/m*3 4.4 C 0 km/h
40 23-11-2019 03:15:00 4.4 C 6.07 g/m*3 4.4 C 3.2 km/h
41 23-11-2019 03:20:00 4.5 C 6.11 g/m*3 4.5 C 1.6 km/h
42 23-11-2019 03:25:00 4.5 C 6.11 g/m*3 4.5 C 1.6 km/h
43 23-11-2019 03:30:00 4.5 C 6.11 g/m*3 4.5 C 0 km/h
44 23-11-2019 03:35:00 4.4 C 6.07 g/m*3 4.4 C 0 km/h
45 23-11-2019 03:40:00 4.4 C 6.07 g/m*3 4.4 C 0 km/h
46 23-11-2019 03:45:00 4.3 C 6.03 g/m*3 4.3 C 3.2 km/h
47 23-11-2019 03:50:00 4.3 C 6.03 g/m*3 4.3 C 3.2 km/h
48 23-11-2019 03:55:00 4.3 C 6.03 g/m*3 2.78 C 6.4 km/h
49 23-11-2019 04:00:00 4.2 C 5.99 g/m*3 4.2 C 1.6 km/h
50 23-11-2019 04:05:00 4.2 C 5.99 g/m*3 4.2 C 0 km/h
Sensor: Nr:Datum:Temp:Abs-Feuchte:Windchill:Wind:
Aussen-T/F 51 23-11-2019 04:10:00 4.1 C 5.95 g/m*3 4.1 C 0 km/h
52 23-11-2019 04:15:00 4.1 C 5.95 g/m*3 4.1 C 0 km/h
53 23-11-2019 04:20:00 4.1 C 6.02 g/m*3 4.1 C 0 km/h
54 23-11-2019 04:25:00 4 C 5.98 g/m*3 4 C 0 km/h
55 23-11-2019 04:30:00 4 C 5.98 g/m*3 4 C 0 km/h
56 23-11-2019 04:35:00 4 C 5.98 g/m*3 4 C 0 km/h
57 23-11-2019 04:40:00 3.9 C 5.94 g/m*3 3.9 C 0 km/h
58 23-11-2019 04:45:00 3.8 C 5.9 g/m*3 3.8 C 1.6 km/h
59 23-11-2019 04:50:00 3.8 C 5.9 g/m*3 3.8 C 0 km/h
60 23-11-2019 04:55:00 3.8 C 5.9 g/m*3 3.8 C 0 km/h
61 23-11-2019 05:00:00 3.8 C 5.9 g/m*3 3.8 C 0 km/h
62 23-11-2019 05:05:00 3.8 C 5.9 g/m*3 3.8 C 0 km/h
63 23-11-2019 05:10:00 3.8 C 5.9 g/m*3 3.8 C 1.6 km/h
64 23-11-2019 05:15:00 3.8 C 5.9 g/m*3 3.8 C 1.6 km/h
65 23-11-2019 05:20:00 3.7 C 5.92 g/m*3 3.7 C 0 km/h
66 23-11-2019 05:25:00 3.7 C 5.92 g/m*3 3.7 C 1.6 km/h
67 23-11-2019 05:30:00 3.7 C 5.92 g/m*3 3.7 C 3.2 km/h
68 23-11-2019 05:35:00 3.6 C 5.88 g/m*3 3.6 C 0 km/h
69 23-11-2019 05:40:00 3.6 C 5.88 g/m*3 3.6 C 0 km/h
70 23-11-2019 05:45:00 3.6 C 5.88 g/m*3 3.6 C 0 km/h
71 23-11-2019 05:50:00 3.6 C 5.88 g/m*3 3.6 C 0 km/h
72 23-11-2019 05:55:00 3.6 C 5.88 g/m*3 3.6 C 1.6 km/h
73 23-11-2019 06:00:00 3.6 C 5.88 g/m*3 3.6 C 0 km/h
74 23-11-2019 06:05:00 3.6 C 5.88 g/m*3 3.6 C 0 km/h
75 23-11-2019 06:10:00 3.7 C 5.92 g/m*3 3.7 C 1.6 km/h
Sensor: Nr:Datum:Temp:Abs-Feuchte:Windchill:Wind:
Aussen-T/F 76 23-11-2019 06:15:00 3.7 C 5.92 g/m*3 3.7 C 0 km/h
77 23-11-2019 06:20:00 3.7 C 5.92 g/m*3 3.7 C 1.6 km/h
78 23-11-2019 06:25:00 3.7 C 5.92 g/m*3 3.7 C 1.6 km/h
79 23-11-2019 06:30:00 3.7 C 5.92 g/m*3 3.7 C 0 km/h
80 23-11-2019 06:35:00 3.7 C 5.98 g/m*3 3.7 C 0 km/h
81 23-11-2019 06:40:00 3.7 C 5.98 g/m*3 3.7 C 0 km/h
82 23-11-2019 06:45:00 3.7 C 5.98 g/m*3 3.7 C 0 km/h
83 23-11-2019 06:50:00 3.7 C 5.98 g/m*3 3.7 C 0 km/h
84 23-11-2019 06:55:00 3.7 C 5.98 g/m*3 3.7 C 0 km/h
85 23-11-2019 07:00:00 3.8 C 6.02 g/m*3 3.8 C 3.2 km/h
86 23-11-2019 07:05:00 3.9 C 6.06 g/m*3 3.9 C 0 km/h
87 23-11-2019 07:10:00 3.9 C 6.06 g/m*3 3.9 C 0 km/h
88 23-11-2019 07:15:00 3.9 C 6.06 g/m*3 3.9 C 0 km/h
89 23-11-2019 07:20:00 3.9 C 6.06 g/m*3 3.9 C 0 km/h
90 23-11-2019 07:25:00 3.9 C 6.06 g/m*3 3.9 C 0 km/h
91 23-11-2019 07:30:00 3.9 C 6.06 g/m*3 3.9 C 0 km/h
92 23-11-2019 07:35:00 4 C 6.1 g/m*3 4 C 0 km/h
93 23-11-2019 07:40:00 4 C 6.1 g/m*3 4 C 0 km/h
94 23-11-2019 07:45:00 4 C 6.1 g/m*3 4 C 3.2 km/h
95 23-11-2019 07:50:00 4 C 6.1 g/m*3 4 C 0 km/h
96 23-11-2019 07:55:00 4.1 C 6.14 g/m*3 4.1 C 0 km/h
97 23-11-2019 08:00:00 4.1 C 6.14 g/m*3 4.1 C 0 km/h
98 23-11-2019 08:05:00 4.1 C 6.14 g/m*3 4.1 C 0 km/h
99 23-11-2019 08:10:00 4.1 C 6.14 g/m*3 4.1 C 0 km/h
100 23-11-2019 08:15:00 4.1 C 6.14 g/m*3 4.1 C 0 km/h
Sensor: Nr:Datum:Temp:Abs-Feuchte:Windchill:Wind:
Aussen-T/F 101 23-11-2019 08:20:00 4.1 C 6.14 g/m*3 4.1 C 0 km/h
102 23-11-2019 08:25:00 4.1 C 6.14 g/m*3 4.1 C 0 km/h
103 23-11-2019 08:30:00 4.1 C 6.14 g/m*3 4.1 C 1.6 km/h
104 23-11-2019 08:35:00 4.1 C 6.14 g/m*3 4.1 C 0 km/h
105 23-11-2019 08:40:00 4.1 C 6.14 g/m*3 4.1 C 0 km/h
106 23-11-2019 08:45:00 4.2 C 6.19 g/m*3 4.2 C 3.2 km/h
107 23-11-2019 08:50:00 4.3 C 6.23 g/m*3 4.3 C 4.8 km/h
108 23-11-2019 08:55:00 4.4 C 6.33 g/m*3 2.01 C 9.7 km/h
109 23-11-2019 09:00:00 4.6 C 6.35 g/m*3 4.6 C 4.8 km/h
110 23-11-2019 09:05:00 4.7 C 6.39 g/m*3 4.7 C 1.6 km/h
111 23-11-2019 09:10:00 4.7 C 6.39 g/m*3 4.7 C 0 km/h
112 23-11-2019 09:15:00 4.8 C 6.44 g/m*3 4.8 C 0 km/h
113 23-11-2019 09:20:00 4.8 C 6.44 g/m*3 4.8 C 0 km/h
114 23-11-2019 09:25:00 4.9 C 6.48 g/m*3 4.9 C 1.6 km/h
115 23-11-2019 09:30:00 5.1 C 6.57 g/m*3 5.1 C 0 km/h
116 23-11-2019 09:35:00 5.2 C 6.61 g/m*3 5.2 C 3.2 km/h
117 23-11-2019 09:40:00 5.2 C 6.61 g/m*3 5.2 C 3.2 km/h
118 23-11-2019 09:45:00 5.3 C 6.65 g/m*3 5.3 C 1.6 km/h
119 23-11-2019 09:50:00 5.4 C 6.7 g/m*3 5.4 C 1.6 km/h
120 23-11-2019 09:55:00 5.4 C 6.63 g/m*3 5.4 C 4.8 km/h
121 23-11-2019 10:00:00 5.6 C 6.72 g/m*3 3.81 C 8.1 km/h
122 23-11-2019 10:05:00 5.7 C 6.69 g/m*3 5.7 C 4.8 km/h
123 23-11-2019 10:10:00 5.8 C 6.66 g/m*3 5.8 C 3.2 km/h
124 23-11-2019 10:15:00 5.9 C 6.71 g/m*3 5.9 C 3.2 km/h
125 23-11-2019 10:20:00 6.1 C 6.79 g/m*3 6.1 C 1.6 km/h
Sensor: Nr:Datum:Temp:Abs-Feuchte:Windchill:Wind:
Aussen-T/F 126 23-11-2019 10:25:00 6.2 C 6.77 g/m*3 6.2 C 4.8 km/h
127 23-11-2019 10:30:00 6.3 C 6.81 g/m*3 6.3 C 1.6 km/h
128 23-11-2019 10:35:00 6.3 C 6.74 g/m*3 6.3 C 4.8 km/h
129 23-11-2019 10:40:00 6.4 C 6.85 g/m*3 6.4 C 0 km/h
130 23-11-2019 10:45:00 6.4 C 6.71 g/m*3 6.4 C 4.8 km/h
131 23-11-2019 10:50:00 6.6 C 6.79 g/m*3 6.6 C 3.2 km/h
132 23-11-2019 10:55:00 6.6 C 6.79 g/m*3 6.6 C 4.8 km/h
133 23-11-2019 11:00:00 6.7 C 6.76 g/m*3 6.7 C 4.8 km/h
134 23-11-2019 11:05:00 6.8 C 6.81 g/m*3 6.8 C 4.8 km/h
135 23-11-2019 11:10:00 6.9 C 6.77 g/m*3 5.79 C 6.4 km/h
136 23-11-2019 11:15:00 7 C 6.82 g/m*3 5.9 C 6.4 km/h
137 23-11-2019 11:20:00 7.1 C 6.86 g/m*3 7.1 C 3.2 km/h
138 23-11-2019 11:25:00 7.2 C 6.83 g/m*3 7.2 C 3.2 km/h
139 23-11-2019 11:30:00 7.3 C 6.87 g/m*3 5.81 C 8.1 km/h
140 23-11-2019 11:35:00 7.4 C 6.92 g/m*3 6.37 C 6.4 km/h
141 23-11-2019 11:40:00 7.5 C 6.96 g/m*3 7.5 C 1.6 km/h
142 23-11-2019 11:45:00 7.6 C 7.01 g/m*3 7.6 C 3.2 km/h
143 23-11-2019 11:50:00 7.6 C 7.09 g/m*3 7.6 C 1.6 km/h
144 23-11-2019 11:55:00 7.6 C 7.17 g/m*3 7.6 C 0 km/h
145 23-11-2019 12:00:00 7.6 C 7.17 g/m*3 7.6 C 0 km/h
146 23-11-2019 12:05:00 7.4 C 7.08 g/m*3 7.4 C 0 km/h
147 23-11-2019 12:10:00 7.4 C 7.08 g/m*3 7.4 C 3.2 km/h
148 23-11-2019 12:15:00 7.3 C 7.11 g/m*3 7.3 C 0 km/h
149 23-11-2019 12:20:00 7.3 C 7.11 g/m*3 7.3 C 1.6 km/h
150 23-11-2019 12:25:00 7.3 C 7.11 g/m*3 7.3 C 1.6 km/h
Sensor: Nr:Datum:Temp:Abs-Feuchte:Windchill:Wind:
Aussen-T/F 151 23-11-2019 12:30:00 7.2 C 7.14 g/m*3 7.2 C 1.6 km/h
152 23-11-2019 12:35:00 7.2 C 7.14 g/m*3 7.2 C 1.6 km/h
153 23-11-2019 12:40:00 7.2 C 7.14 g/m*3 7.2 C 1.6 km/h
154 23-11-2019 12:45:00 7.3 C 7.19 g/m*3 7.3 C 0 km/h
155 23-11-2019 12:50:00 7.4 C 7.16 g/m*3 7.4 C 4.8 km/h
156 23-11-2019 12:55:00 7.7 C 7.22 g/m*3 7.7 C 0 km/h
157 23-11-2019 13:00:00 7.8 C 7.26 g/m*3 6.83 C 6.4 km/h
158 23-11-2019 13:05:00 7.9 C 7.31 g/m*3 7.9 C 3.2 km/h
159 23-11-2019 13:10:00 7.9 C 7.31 g/m*3 7.9 C 1.6 km/h
160 23-11-2019 13:15:00 7.8 C 7.26 g/m*3 7.8 C 1.6 km/h
161 23-11-2019 13:20:00 7.8 C 7.35 g/m*3 7.8 C 1.6 km/h
162 23-11-2019 13:25:00 7.7 C 7.3 g/m*3 7.7 C 1.6 km/h
163 23-11-2019 13:30:00 7.7 C 7.3 g/m*3 7.7 C 1.6 km/h
164 23-11-2019 13:35:00 7.6 C 7.25 g/m*3 7.6 C 1.6 km/h
165 23-11-2019 13:40:00 7.5 C 7.28 g/m*3 7.5 C 0 km/h
166 23-11-2019 13:45:00 7.4 C 7.24 g/m*3 7.4 C 0 km/h
167 23-11-2019 13:50:00 7.4 C 7.24 g/m*3 7.4 C 1.6 km/h
168 23-11-2019 13:55:00 7.3 C 7.19 g/m*3 7.3 C 3.2 km/h
169 23-11-2019 14:00:00 7.3 C 7.27 g/m*3 7.3 C 1.6 km/h
170 23-11-2019 14:05:00 7.3 C 7.27 g/m*3 7.3 C 3.2 km/h
171 23-11-2019 14:10:00 7.3 C 7.27 g/m*3 7.3 C 3.2 km/h
172 23-11-2019 14:15:00 7.4 C 7.32 g/m*3 7.4 C 1.6 km/h
173 23-11-2019 14:20:00 7.4 C 7.32 g/m*3 7.4 C 1.6 km/h
174 23-11-2019 14:25:00 7.5 C 7.44 g/m*3 7.5 C 1.6 km/h
175 23-11-2019 14:30:00 7.6 C 7.41 g/m*3 7.6 C 4.8 km/h
Sensor: Nr:Datum:Temp:Abs-Feuchte:Windchill:Wind:
Aussen-T/F 176 23-11-2019 14:35:00 7.7 C 7.46 g/m*3 7.7 C 1.6 km/h
177 23-11-2019 14:40:00 7.7 C 7.46 g/m*3 7.7 C 1.6 km/h
178 23-11-2019 14:45:00 7.7 C 7.46 g/m*3 7.7 C 3.2 km/h
179 23-11-2019 14:50:00 7.7 C 7.46 g/m*3 7.7 C 3.2 km/h
180 23-11-2019 14:55:00 7.8 C 7.51 g/m*3 7.8 C 3.2 km/h
181 23-11-2019 15:00:00 7.8 C 7.43 g/m*3 7.8 C 3.2 km/h
182 23-11-2019 15:05:00 7.9 C 7.39 g/m*3 7.9 C 4.8 km/h
183 23-11-2019 15:10:00 8.2 C 7.62 g/m*3 8.2 C 3.2 km/h
184 23-11-2019 15:15:00 8.3 C 7.59 g/m*3 6.66 C 9.7 km/h
185 23-11-2019 15:20:00 8.4 C 7.55 g/m*3 7.52 C 6.4 km/h
186 23-11-2019 15:25:00 8.5 C 7.51 g/m*3 7.22 C 8.1 km/h
187 23-11-2019 15:30:00 8.6 C 7.56 g/m*3 8.6 C 1.6 km/h
188 23-11-2019 15:35:00 8.7 C 7.52 g/m*3 7.13 C 9.7 km/h
189 23-11-2019 15:40:00 8.7 C 7.61 g/m*3 8.7 C 3.2 km/h
190 23-11-2019 15:45:00 8.6 C 7.56 g/m*3 7.75 C 6.4 km/h
191 23-11-2019 15:50:00 8.4 C 7.47 g/m*3 8.4 C 3.2 km/h
192 23-11-2019 15:55:00 8.3 C 7.5 g/m*3 8.3 C 3.2 km/h
193 23-11-2019 16:00:00 8.2 C 7.37 g/m*3 8.2 C 3.2 km/h
194 23-11-2019 16:05:00 8.1 C 7.41 g/m*3 8.1 C 3.2 km/h
195 23-11-2019 16:10:00 8.1 C 7.32 g/m*3 6.75 C 8.1 km/h
196 23-11-2019 16:15:00 8.1 C 7.24 g/m*3 8.1 C 3.2 km/h
197 23-11-2019 16:20:00 7.9 C 7.23 g/m*3 7.9 C 1.6 km/h
198 23-11-2019 16:25:00 7.8 C 7.18 g/m*3 7.8 C 4.8 km/h
199 23-11-2019 16:30:00 7.7 C 7.14 g/m*3 7.7 C 1.6 km/h
200 23-11-2019 16:35:00 7.5 C 7.04 g/m*3 7.5 C 0 km/h
Sensor: Nr:Datum:Temp:Abs-Feuchte:Windchill:Wind:
Aussen-T/F 201 23-11-2019 16:40:00 7.3 C 7.03 g/m*3 7.3 C 0 km/h
202 23-11-2019 16:45:00 7.1 C 7.02 g/m*3 7.1 C 0 km/h
203 23-11-2019 16:50:00 6.9 C 6.93 g/m*3 6.9 C 0 km/h
204 23-11-2019 16:55:00 6.8 C 6.88 g/m*3 6.8 C 1.6 km/h
205 23-11-2019 17:00:00 6.7 C 6.91 g/m*3 6.7 C 1.6 km/h
206 23-11-2019 17:05:00 6.6 C 6.87 g/m*3 6.6 C 3.2 km/h
207 23-11-2019 17:10:00 6.5 C 6.9 g/m*3 6.5 C 3.2 km/h
208 23-11-2019 17:15:00 6.4 C 6.85 g/m*3 6.4 C 3.2 km/h
209 23-11-2019 17:20:00 6.3 C 6.81 g/m*3 6.3 C 1.6 km/h
210 23-11-2019 17:25:00 6.3 C 6.81 g/m*3 6.3 C 1.6 km/h
211 23-11-2019 17:30:00 6.2 C 6.77 g/m*3 6.2 C 1.6 km/h
212 23-11-2019 17:35:00 6.1 C 6.79 g/m*3 6.1 C 3.2 km/h
213 23-11-2019 17:40:00 6.1 C 6.79 g/m*3 6.1 C 1.6 km/h
214 23-11-2019 17:45:00 6 C 6.75 g/m*3 6 C 3.2 km/h
215 23-11-2019 17:50:00 6 C 6.75 g/m*3 6 C 3.2 km/h
216 23-11-2019 17:55:00 5.9 C 6.71 g/m*3 5.9 C 3.2 km/h
217 23-11-2019 18:00:00 5.9 C 6.71 g/m*3 5.9 C 3.2 km/h
218 23-11-2019 18:05:00 5.8 C 6.66 g/m*3 5.8 C 3.2 km/h
219 23-11-2019 18:10:00 5.8 C 6.66 g/m*3 5.8 C 3.2 km/h
220 23-11-2019 18:15:00 5.8 C 6.73 g/m*3 5.8 C 0 km/h
221 23-11-2019 18:20:00 5.8 C 6.73 g/m*3 5.8 C 0 km/h
222 23-11-2019 18:25:00 5.8 C 6.73 g/m*3 5.8 C 0 km/h
223 23-11-2019 18:30:00 5.8 C 6.73 g/m*3 5.8 C 0 km/h
224 23-11-2019 18:35:00 5.7 C 6.69 g/m*3 5.7 C 0 km/h
225 23-11-2019 18:40:00 5.7 C 6.69 g/m*3 5.7 C 0 km/h
Sensor: Nr:Datum:Temp:Abs-Feuchte:Windchill:Wind:
Aussen-T/F 226 23-11-2019 18:45:00 5.7 C 6.69 g/m*3 5.7 C 0 km/h
227 23-11-2019 18:50:00 5.7 C 6.69 g/m*3 5.7 C 0 km/h
228 23-11-2019 18:55:00 5.7 C 6.69 g/m*3 5.7 C 0 km/h
229 23-11-2019 19:00:00 5.7 C 6.69 g/m*3 5.7 C 0 km/h
230 23-11-2019 19:05:00 5.7 C 6.76 g/m*3 5.7 C 0 km/h
231 23-11-2019 19:10:00 5.7 C 6.69 g/m*3 5.7 C 0 km/h
232 23-11-2019 19:15:00 5.6 C 6.72 g/m*3 5.6 C 3.2 km/h
233 23-11-2019 19:20:00 5.6 C 6.72 g/m*3 5.6 C 1.6 km/h
234 23-11-2019 19:25:00 5.6 C 6.72 g/m*3 5.6 C 3.2 km/h
235 23-11-2019 19:30:00 5.6 C 6.72 g/m*3 5.6 C 3.2 km/h
236 23-11-2019 19:35:00 5.5 C 6.67 g/m*3 5.5 C 1.6 km/h
237 23-11-2019 19:40:00 5.5 C 6.67 g/m*3 5.5 C 1.6 km/h
238 23-11-2019 19:45:00 5.5 C 6.67 g/m*3 5.5 C 1.6 km/h
239 23-11-2019 19:50:00 5.4 C 6.63 g/m*3 5.4 C 1.6 km/h
240 23-11-2019 19:55:00 5.4 C 6.63 g/m*3 5.4 C 0 km/h
241 23-11-2019 20:00:00 5.3 C 6.58 g/m*3 5.3 C 0 km/h
242 23-11-2019 20:05:00 5.3 C 6.58 g/m*3 5.3 C 0 km/h
243 23-11-2019 20:10:00 5.2 C 6.54 g/m*3 5.2 C 0 km/h
244 23-11-2019 20:15:00 5.2 C 6.54 g/m*3 5.2 C 1.6 km/h
245 23-11-2019 20:20:00 5.1 C 6.5 g/m*3 5.1 C 1.6 km/h
246 23-11-2019 20:25:00 5.1 C 6.5 g/m*3 5.1 C 0 km/h
247 23-11-2019 20:30:00 5 C 6.46 g/m*3 5 C 0 km/h
248 23-11-2019 20:35:00 4.8 C 6.37 g/m*3 4.8 C 0 km/h
249 23-11-2019 20:40:00 4.8 C 6.37 g/m*3 4.8 C 0 km/h
250 23-11-2019 20:45:00 4.8 C 6.37 g/m*3 4.8 C 0 km/h
Sensor: Nr:Datum:Temp:Abs-Feuchte:Windchill:Wind:
Aussen-T/F 251 23-11-2019 20:50:00 4.8 C 6.37 g/m*3 4.8 C 0 km/h
252 23-11-2019 20:55:00 4.7 C 6.33 g/m*3 4.7 C 0 km/h
253 23-11-2019 21:00:00 4.7 C 6.33 g/m*3 4.7 C 0 km/h
254 23-11-2019 21:05:00 4.7 C 6.33 g/m*3 4.7 C 0 km/h
255 23-11-2019 21:10:00 4.6 C 6.29 g/m*3 4.6 C 0 km/h
256 23-11-2019 21:15:00 4.6 C 6.29 g/m*3 4.6 C 0 km/h
257 23-11-2019 21:20:00 4.6 C 6.29 g/m*3 4.6 C 0 km/h
258 23-11-2019 21:25:00 4.5 C 6.24 g/m*3 4.5 C 0 km/h
259 23-11-2019 21:30:00 4.4 C 6.2 g/m*3 4.4 C 0 km/h
260 23-11-2019 21:35:00 4.3 C 6.16 g/m*3 4.3 C 0 km/h
261 23-11-2019 21:40:00 4.2 C 6.12 g/m*3 4.2 C 0 km/h
262 23-11-2019 21:45:00 4.2 C 6.12 g/m*3 4.2 C 0 km/h
263 23-11-2019 21:50:00 4.1 C 6.08 g/m*3 4.1 C 1.6 km/h
264 23-11-2019 21:55:00 4.1 C 6.14 g/m*3 4.1 C 0 km/h
265 23-11-2019 22:00:00 4.1 C 6.08 g/m*3 4.1 C 0 km/h
266 23-11-2019 22:05:00 4.1 C 6.14 g/m*3 4.1 C 0 km/h
267 23-11-2019 22:10:00 4.1 C 6.14 g/m*3 4.1 C 0 km/h
268 23-11-2019 22:15:00 4.1 C 6.14 g/m*3 4.1 C 0 km/h
269 23-11-2019 22:20:00 3.9 C 6.06 g/m*3 3.9 C 0 km/h
270 23-11-2019 22:25:00 3.8 C 6.02 g/m*3 3.8 C 0 km/h
271 23-11-2019 22:30:00 3.8 C 6.02 g/m*3 3.8 C 0 km/h
272 23-11-2019 22:35:00 3.8 C 6.02 g/m*3 3.8 C 0 km/h
273 23-11-2019 22:40:00 3.8 C 6.02 g/m*3 3.8 C 0 km/h
274 23-11-2019 22:45:00 3.7 C 5.98 g/m*3 3.7 C 3.2 km/h
275 23-11-2019 22:50:00 3.6 C 5.94 g/m*3 3.6 C 0 km/h
Sensor: Nr:Datum:Temp:Abs-Feuchte:Windchill:Wind:
Aussen-T/F 276 23-11-2019 22:55:00 3.5 C 5.9 g/m*3 3.5 C 1.6 km/h
277 23-11-2019 23:00:00 3.4 C 5.86 g/m*3 3.4 C 0 km/h
278 23-11-2019 23:05:00 3.4 C 5.86 g/m*3 3.4 C 0 km/h
279 23-11-2019 23:10:00 3.4 C 5.86 g/m*3 3.4 C 0 km/h
280 23-11-2019 23:15:00 3.4 C 5.86 g/m*3 3.4 C 0 km/h
281 23-11-2019 23:20:00 3.3 C 5.82 g/m*3 3.3 C 0 km/h
282 23-11-2019 23:25:00 3.3 C 5.82 g/m*3 3.3 C 0 km/h
283 23-11-2019 23:30:00 3.2 C 5.79 g/m*3 3.2 C 1.6 km/h
284 23-11-2019 23:35:00 3.2 C 5.79 g/m*3 3.2 C 0 km/h
285 23-11-2019 23:40:00 3.2 C 5.79 g/m*3 3.2 C 0 km/h
286 23-11-2019 23:45:00 3.2 C 5.79 g/m*3 3.2 C 0 km/h
287 23-11-2019 23:50:00 3.2 C 5.79 g/m*3 3.2 C 0 km/h
288 23-11-2019 23:55:00 3.2 C 5.79 g/m*3 3.2 C 0 km/h
289 24-11-2019 00:00:00 3.2 C 5.79 g/m*3 3.2 C 0 km/h
290 24-11-2019 00:05:00 3.1 C 5.75 g/m*3 3.1 C 0 km/h
291 24-11-2019 00:10:00 3.1 C 5.75 g/m*3 3.1 C 0 km/h
292 24-11-2019 00:15:00 3.1 C 5.75 g/m*3 3.1 C 1.6 km/h
293 24-11-2019 00:20:00 3 C 5.71 g/m*3 3 C 0 km/h
294 24-11-2019 00:25:00 2.9 C 5.67 g/m*3 2.9 C 0 km/h
295 24-11-2019 00:30:00 2.8 C 5.63 g/m*3 2.8 C 0 km/h
296 24-11-2019 00:35:00 2.7 C 5.59 g/m*3 2.7 C 0 km/h
297 24-11-2019 00:40:00 2.6 C 5.56 g/m*3 2.6 C 0 km/h
298 24-11-2019 00:45:00 2.4 C 5.48 g/m*3 2.4 C 0 km/h
299 24-11-2019 00:50:00 2.4 C 5.48 g/m*3 2.4 C 0 km/h
300 24-11-2019 00:55:00 2.3 C 5.44 g/m*3 2.3 C 0 km/h
Sensor: Nr:Datum:Temp:Abs-Feuchte:Windchill:Wind:
Aussen-T/F 301 24-11-2019 01:00:00 2.3 C 5.44 g/m*3 2.3 C 0 km/h
302 24-11-2019 01:05:00 2.3 C 5.44 g/m*3 2.3 C 0 km/h
303 24-11-2019 01:10:00 2.3 C 5.44 g/m*3 2.3 C 0 km/h
304 24-11-2019 01:15:00 2.5 C 5.52 g/m*3 2.5 C 0 km/h
305 24-11-2019 01:20:00 2.6 C 5.61 g/m*3 2.6 C 0 km/h
306 24-11-2019 01:25:00 2.6 C 5.61 g/m*3 2.6 C 0 km/h
307 24-11-2019 01:30:00 2.4 C 5.48 g/m*3 2.4 C 0 km/h
308 24-11-2019 01:35:00 2.3 C 5.44 g/m*3 2.3 C 0 km/h
309 24-11-2019 01:40:00 2.4 C 5.48 g/m*3 2.4 C 0 km/h
310 24-11-2019 01:45:00 2.4 C 5.48 g/m*3 2.4 C 0 km/h
311 24-11-2019 01:50:00 2.3 C 5.5 g/m*3 2.3 C 0 km/h
312 24-11-2019 01:55:00 2.2 C 5.41 g/m*3 2.2 C 0 km/h
313 24-11-2019 02:00:00 2.2 C 5.46 g/m*3 2.2 C 0 km/h
314 24-11-2019 02:05:00 2.2 C 5.46 g/m*3 2.2 C 0 km/h
315 24-11-2019 02:10:00 2.2 C 5.46 g/m*3 2.2 C 0 km/h
316 24-11-2019 02:15:00 2.2 C 5.46 g/m*3 2.2 C 0 km/h
317 24-11-2019 02:20:00 2.2 C 5.46 g/m*3 2.2 C 0 km/h
318 24-11-2019 02:25:00 2.2 C 5.46 g/m*3 2.2 C 0 km/h
319 24-11-2019 02:30:00 2.1 C 5.43 g/m*3 2.1 C 0 km/h
320 24-11-2019 02:35:00 2.1 C 5.43 g/m*3 2.1 C 0 km/h
321 24-11-2019 02:40:00 2.1 C 5.43 g/m*3 2.1 C 0 km/h
322 24-11-2019 02:45:00 2.1 C 5.43 g/m*3 2.1 C 0 km/h
323 24-11-2019 02:50:00 2.2 C 5.46 g/m*3 2.2 C 0 km/h
324 24-11-2019 02:55:00 2.2 C 5.46 g/m*3 2.2 C 0 km/h
325 24-11-2019 03:00:00 2.2 C 5.46 g/m*3 2.2 C 0 km/h
Sensor: Nr:Datum:Temp:Abs-Feuchte:Windchill:Wind:
Aussen-T/F 326 24-11-2019 03:05:00 2.1 C 5.43 g/m*3 2.1 C 0 km/h
327 24-11-2019 03:10:00 2.1 C 5.43 g/m*3 2.1 C 0 km/h
328 24-11-2019 03:15:00 2.2 C 5.46 g/m*3 2.2 C 0 km/h
329 24-11-2019 03:20:00 2.3 C 5.5 g/m*3 2.3 C 0 km/h
330 24-11-2019 03:25:00 2.3 C 5.5 g/m*3 2.3 C 0 km/h
331 24-11-2019 03:30:00 2.3 C 5.5 g/m*3 2.3 C 0 km/h
332 24-11-2019 03:35:00 2.2 C 5.46 g/m*3 2.2 C 0 km/h
333 24-11-2019 03:40:00 2.1 C 5.43 g/m*3 2.1 C 0 km/h
334 24-11-2019 03:45:00 1.9 C 5.35 g/m*3 1.9 C 0 km/h
335 24-11-2019 03:50:00 1.8 C 5.32 g/m*3 1.8 C 0 km/h
336 24-11-2019 03:55:00 1.7 C 5.28 g/m*3 1.7 C 0 km/h
337 24-11-2019 04:00:00 1.7 C 5.28 g/m*3 1.7 C 0 km/h
338 24-11-2019 04:05:00 1.6 C 5.25 g/m*3 1.6 C 0 km/h
339 24-11-2019 04:10:00 1.7 C 5.28 g/m*3 1.7 C 0 km/h
340 24-11-2019 04:15:00 1.7 C 5.28 g/m*3 1.7 C 0 km/h
341 24-11-2019 04:20:00 1.8 C 5.32 g/m*3 1.8 C 0 km/h
342 24-11-2019 04:25:00 1.7 C 5.28 g/m*3 1.7 C 0 km/h
343 24-11-2019 04:30:00 1.7 C 5.28 g/m*3 1.7 C 0 km/h
344 24-11-2019 04:35:00 1.6 C 5.25 g/m*3 1.6 C 0 km/h
345 24-11-2019 04:40:00 1.6 C 5.25 g/m*3 1.6 C 0 km/h
346 24-11-2019 04:45:00 1.7 C 5.28 g/m*3 1.7 C 0 km/h
347 24-11-2019 04:50:00 1.8 C 5.32 g/m*3 1.8 C 0 km/h
348 24-11-2019 04:55:00 1.8 C 5.32 g/m*3 1.8 C 0 km/h
349 24-11-2019 05:00:00 1.7 C 5.28 g/m*3 1.7 C 0 km/h
350 24-11-2019 05:05:00 1.7 C 5.28 g/m*3 1.7 C 1.6 km/h
Sensor: Nr:Datum:Temp:Abs-Feuchte:Windchill:Wind:
Aussen-T/F 351 24-11-2019 05:10:00 1.7 C 5.28 g/m*3 1.7 C 1.6 km/h
352 24-11-2019 05:15:00 1.8 C 5.32 g/m*3 1.8 C 0 km/h
353 24-11-2019 05:20:00 1.9 C 5.35 g/m*3 1.9 C 0 km/h
354 24-11-2019 05:25:00 1.9 C 5.35 g/m*3 1.9 C 0 km/h
355 24-11-2019 05:30:00 2 C 5.39 g/m*3 2 C 0 km/h
356 24-11-2019 05:35:00 1.9 C 5.35 g/m*3 1.9 C 0 km/h
357 24-11-2019 05:40:00 1.9 C 5.35 g/m*3 1.9 C 0 km/h
358 24-11-2019 05:45:00 1.8 C 5.32 g/m*3 1.8 C 0 km/h
359 24-11-2019 05:50:00 1.8 C 5.32 g/m*3 1.8 C 0 km/h
360 24-11-2019 05:55:00 1.8 C 5.32 g/m*3 1.8 C 0 km/h
361 24-11-2019 06:00:00 1.6 C 5.25 g/m*3 1.6 C 0 km/h
362 24-11-2019 06:05:00 1.5 C 5.21 g/m*3 1.5 C 0 km/h
363 24-11-2019 06:10:00 1.4 C 5.17 g/m*3 1.4 C 0 km/h
364 24-11-2019 06:15:00 1.5 C 5.21 g/m*3 1.5 C 0 km/h
365 24-11-2019 06:20:00 1.6 C 5.25 g/m*3 1.6 C 0 km/h
366 24-11-2019 06:25:00 1.6 C 5.25 g/m*3 1.6 C 0 km/h
367 24-11-2019 06:30:00 1.6 C 5.25 g/m*3 1.6 C 0 km/h
368 24-11-2019 06:35:00 1.5 C 5.21 g/m*3 1.5 C 0 km/h
369 24-11-2019 06:40:00 1.5 C 5.21 g/m*3 1.5 C 0 km/h
370 24-11-2019 06:45:00 1.4 C 5.17 g/m*3 1.4 C 0 km/h
371 24-11-2019 06:50:00 1.3 C 5.14 g/m*3 1.3 C 0 km/h
372 24-11-2019 06:55:00 1.3 C 5.14 g/m*3 1.3 C 0 km/h
373 24-11-2019 07:00:00 1.3 C 5.14 g/m*3 1.3 C 0 km/h
374 24-11-2019 07:05:00 1.3 C 5.14 g/m*3 1.3 C 0 km/h
375 24-11-2019 07:10:00 1.2 C 5.1 g/m*3 1.2 C 0 km/h
Sensor: Nr:Datum:Temp:Abs-Feuchte:Windchill:Wind:
Aussen-T/F 376 24-11-2019 07:15:00 1.2 C 5.1 g/m*3 1.2 C 0 km/h
377 24-11-2019 07:20:00 1.2 C 5.1 g/m*3 1.2 C 1.6 km/h
378 24-11-2019 07:25:00 1.2 C 5.1 g/m*3 1.2 C 0 km/h
379 24-11-2019 07:30:00 1.2 C 5.1 g/m*3 1.2 C 0 km/h
380 24-11-2019 07:35:00 1.2 C 5.1 g/m*3 1.2 C 0 km/h
381 24-11-2019 07:40:00 1.1 C 5.07 g/m*3 1.1 C 0 km/h
382 24-11-2019 07:45:00 1 C 5.03 g/m*3 1 C 0 km/h
383 24-11-2019 07:50:00 0.9 C 5 g/m*3 0.9 C 0 km/h
384 24-11-2019 07:55:00 0.9 C 5 g/m*3 0.9 C 0 km/h
385 24-11-2019 08:00:00 1 C 5.03 g/m*3 1 C 0 km/h
386 24-11-2019 08:05:00 1.1 C 5.07 g/m*3 1.1 C 0 km/h
387 24-11-2019 08:10:00 1.2 C 5.1 g/m*3 1.2 C 0 km/h
388 24-11-2019 08:15:00 1.2 C 5.1 g/m*3 1.2 C 0 km/h
389 24-11-2019 08:20:00 1.1 C 5.07 g/m*3 1.1 C 0 km/h
390 24-11-2019 08:25:00 1.1 C 5.07 g/m*3 1.1 C 0 km/h
391 24-11-2019 08:30:00 1.1 C 5.07 g/m*3 1.1 C 0 km/h
392 24-11-2019 08:35:00 1.1 C 5.07 g/m*3 1.1 C 0 km/h
393 24-11-2019 08:40:00 1.2 C 5.1 g/m*3 1.2 C 0 km/h
394 24-11-2019 08:45:00 1.2 C 5.1 g/m*3 1.2 C 0 km/h
395 24-11-2019 08:50:00 1.2 C 5.1 g/m*3 1.2 C 0 km/h
396 24-11-2019 08:55:00 1.3 C 5.14 g/m*3 1.3 C 0 km/h
397 24-11-2019 09:00:00 1.3 C 5.14 g/m*3 1.3 C 0 km/h
398 24-11-2019 09:05:00 1.3 C 5.14 g/m*3 1.3 C 0 km/h
399 24-11-2019 09:10:00 1.4 C 5.17 g/m*3 1.4 C 0 km/h
400 24-11-2019 09:15:00 1.4 C 5.17 g/m*3 1.4 C 0 km/h
Sensor: Nr:Datum:Temp:Abs-Feuchte:Windchill:Wind:
Aussen-T/F 401 24-11-2019 09:20:00 1.4 C 5.17 g/m*3 1.4 C 0 km/h
402 24-11-2019 09:25:00 1.5 C 5.26 g/m*3 1.5 C 1.6 km/h
403 24-11-2019 09:30:00 1.6 C 5.25 g/m*3 1.6 C 0 km/h
404 24-11-2019 09:35:00 1.6 C 5.25 g/m*3 1.6 C 1.6 km/h
405 24-11-2019 09:40:00 1.6 C 5.25 g/m*3 1.6 C 0 km/h
406 24-11-2019 09:45:00 1.7 C 5.28 g/m*3 1.7 C 0 km/h
407 24-11-2019 09:50:00 1.7 C 5.28 g/m*3 1.7 C 0 km/h
408 24-11-2019 09:55:00 1.8 C 5.37 g/m*3 1.8 C 0 km/h
409 24-11-2019 10:00:00 1.8 C 5.37 g/m*3 1.8 C 0 km/h
410 24-11-2019 10:05:00 1.9 C 5.41 g/m*3 1.9 C 0 km/h
411 24-11-2019 10:10:00 1.9 C 5.35 g/m*3 1.9 C 0 km/h
412 24-11-2019 10:15:00 2 C 5.45 g/m*3 2 C 0 km/h
413 24-11-2019 10:20:00 2.1 C 5.48 g/m*3 2.1 C 0 km/h
414 24-11-2019 10:25:00 2.2 C 5.52 g/m*3 2.2 C 0 km/h
415 24-11-2019 10:30:00 2.3 C 5.56 g/m*3 2.3 C 0 km/h
416 24-11-2019 10:35:00 2.4 C 5.6 g/m*3 2.4 C 1.6 km/h
417 24-11-2019 10:40:00 2.5 C 5.63 g/m*3 2.5 C 0 km/h
418 24-11-2019 10:45:00 2.6 C 5.67 g/m*3 2.6 C 1.6 km/h
419 24-11-2019 10:50:00 2.7 C 5.71 g/m*3 2.7 C 1.6 km/h
420 24-11-2019 10:55:00 2.7 C 5.71 g/m*3 2.7 C 1.6 km/h
421 24-11-2019 11:00:00 2.7 C 5.71 g/m*3 2.7 C 1.6 km/h
422 24-11-2019 11:05:00 2.8 C 5.75 g/m*3 2.8 C 0 km/h
423 24-11-2019 11:10:00 2.8 C 5.75 g/m*3 2.8 C 0 km/h
424 24-11-2019 11:15:00 2.9 C 5.79 g/m*3 2.9 C 0 km/h
425 24-11-2019 11:20:00 3 C 5.83 g/m*3 3 C 0 km/h
Sensor: Nr:Datum:Temp:Abs-Feuchte:Windchill:Wind:
Aussen-T/F 426 24-11-2019 11:25:00 3.1 C 5.87 g/m*3 3.1 C 0 km/h
427 24-11-2019 11:30:00 3.1 C 5.87 g/m*3 3.1 C 0 km/h
428 24-11-2019 11:35:00 3.1 C 5.87 g/m*3 3.1 C 0 km/h
429 24-11-2019 11:40:00 3.1 C 5.87 g/m*3 3.1 C 0 km/h
430 24-11-2019 11:45:00 3.2 C 5.91 g/m*3 3.2 C 0 km/h
431 24-11-2019 11:50:00 3.2 C 5.91 g/m*3 3.2 C 0 km/h
432 24-11-2019 11:55:00 3.2 C 5.91 g/m*3 3.2 C 0 km/h
433 24-11-2019 12:00:00 3.2 C 5.91 g/m*3 3.2 C 0 km/h
434 24-11-2019 12:05:00 3.3 C 5.95 g/m*3 3.3 C 0 km/h
435 24-11-2019 12:10:00 3.4 C 5.99 g/m*3 3.4 C 0 km/h
436 24-11-2019 12:15:00 3.6 C 6.07 g/m*3 3.6 C 0 km/h
437 24-11-2019 12:20:00 3.7 C 6.11 g/m*3 3.7 C 0 km/h
438 24-11-2019 12:25:00 3.8 C 6.15 g/m*3 3.8 C 0 km/h
439 24-11-2019 12:30:00 3.9 C 6.19 g/m*3 3.9 C 0 km/h
440 24-11-2019 12:35:00 4 C 6.23 g/m*3 4 C 0 km/h
441 24-11-2019 12:40:00 4.1 C 6.27 g/m*3 4.1 C 0 km/h
442 24-11-2019 12:45:00 4.2 C 6.31 g/m*3 4.2 C 0 km/h
443 24-11-2019 12:50:00 4.3 C 6.36 g/m*3 4.3 C 0 km/h
444 24-11-2019 12:55:00 4.3 C 6.36 g/m*3 4.3 C 0 km/h
445 24-11-2019 13:00:00 4.3 C 6.36 g/m*3 4.3 C 0 km/h
446 24-11-2019 13:05:00 4.4 C 6.4 g/m*3 4.4 C 0 km/h
447 24-11-2019 13:10:00 4.6 C 6.48 g/m*3 4.6 C 0 km/h
448 24-11-2019 13:15:00 4.7 C 6.53 g/m*3 4.7 C 0 km/h
449 24-11-2019 13:20:00 4.8 C 6.57 g/m*3 4.8 C 0 km/h
450 24-11-2019 13:25:00 4.8 C 6.57 g/m*3 4.8 C 0 km/h
Sensor: Nr:Datum:Temp:Abs-Feuchte:Windchill:Wind:
Aussen-T/F 451 24-11-2019 13:30:00 4.9 C 6.62 g/m*3 4.9 C 0 km/h
452 24-11-2019 13:35:00 4.9 C 6.62 g/m*3 4.9 C 0 km/h
453 24-11-2019 13:40:00 5 C 6.66 g/m*3 5 C 0 km/h
454 24-11-2019 13:45:00 5.1 C 6.7 g/m*3 5.1 C 0 km/h
455 24-11-2019 13:50:00 5.1 C 6.7 g/m*3 5.1 C 0 km/h
456 24-11-2019 13:55:00 5.2 C 6.75 g/m*3 5.2 C 0 km/h
457 24-11-2019 14:00:00 5.2 C 6.75 g/m*3 5.2 C 0 km/h
458 24-11-2019 14:05:00 5.3 C 6.79 g/m*3 5.3 C 0 km/h
459 24-11-2019 14:10:00 5.4 C 6.84 g/m*3 5.4 C 0 km/h
460 24-11-2019 14:15:00 5.4 C 6.84 g/m*3 5.4 C 0 km/h
461 24-11-2019 14:20:00 5.5 C 6.88 g/m*3 5.5 C 0 km/h
462 24-11-2019 14:25:00 5.5 C 6.88 g/m*3 5.5 C 0 km/h
463 24-11-2019 14:30:00 5.5 C 6.88 g/m*3 5.5 C 0 km/h
464 24-11-2019 14:35:00 5.5 C 6.88 g/m*3 5.5 C 0 km/h
465 24-11-2019 14:40:00 5.4 C 6.84 g/m*3 5.4 C 0 km/h
466 24-11-2019 14:45:00 5.4 C 6.84 g/m*3 5.4 C 0 km/h
467 24-11-2019 14:50:00 5.3 C 6.79 g/m*3 5.3 C 0 km/h
468 24-11-2019 14:55:00 5.3 C 6.79 g/m*3 5.3 C 0 km/h
469 24-11-2019 15:00:00 5.3 C 6.79 g/m*3 5.3 C 0 km/h
470 24-11-2019 15:05:00 5.3 C 6.79 g/m*3 5.3 C 0 km/h
471 24-11-2019 15:10:00 5.3 C 6.79 g/m*3 5.3 C 0 km/h
472 24-11-2019 15:15:00 5.3 C 6.79 g/m*3 5.3 C 0 km/h
473 24-11-2019 15:20:00 5.4 C 6.84 g/m*3 5.4 C 0 km/h
474 24-11-2019 15:25:00 5.4 C 6.84 g/m*3 5.4 C 0 km/h
475 24-11-2019 15:30:00 5.5 C 6.88 g/m*3 5.5 C 0 km/h
Sensor: Nr:Datum:Temp:Abs-Feuchte:Windchill:Wind:
Aussen-T/F 476 24-11-2019 15:35:00 5.5 C 6.88 g/m*3 5.5 C 0 km/h
477 24-11-2019 15:40:00 5.5 C 6.88 g/m*3 5.5 C 0 km/h
478 24-11-2019 15:45:00 5.4 C 6.84 g/m*3 5.4 C 0 km/h
479 24-11-2019 15:50:00 5.4 C 6.84 g/m*3 5.4 C 0 km/h
480 24-11-2019 15:55:00 5.4 C 6.84 g/m*3 5.4 C 0 km/h
481 24-11-2019 16:00:00 5.3 C 6.79 g/m*3 5.3 C 0 km/h
482 24-11-2019 16:05:00 5.2 C 6.68 g/m*3 5.2 C 0 km/h
483 24-11-2019 16:10:00 5.1 C 6.63 g/m*3 5.1 C 0 km/h
484 24-11-2019 16:15:00 5 C 6.59 g/m*3 5 C 0 km/h
485 24-11-2019 16:20:00 4.8 C 6.5 g/m*3 4.8 C 0 km/h
486 24-11-2019 16:25:00 4.7 C 6.46 g/m*3 4.7 C 0 km/h
487 24-11-2019 16:30:00 4.7 C 6.46 g/m*3 4.7 C 0 km/h
488 24-11-2019 16:35:00 4.5 C 6.38 g/m*3 4.5 C 0 km/h
489 24-11-2019 16:40:00 4.4 C 6.33 g/m*3 4.4 C 0 km/h
490 24-11-2019 16:45:00 4.3 C 6.29 g/m*3 4.3 C 0 km/h
491 24-11-2019 16:50:00 4.3 C 6.29 g/m*3 4.3 C 0 km/h
492 24-11-2019 16:55:00 4.3 C 6.29 g/m*3 4.3 C 0 km/h
493 24-11-2019 17:00:00 4.2 C 6.25 g/m*3 4.2 C 0 km/h
494 24-11-2019 17:05:00 4.2 C 6.25 g/m*3 4.2 C 0 km/h
495 24-11-2019 17:10:00 4.2 C 6.25 g/m*3 4.2 C 0 km/h
496 24-11-2019 17:15:00 4.1 C 6.21 g/m*3 4.1 C 0 km/h
497 24-11-2019 17:20:00 4.1 C 6.21 g/m*3 4.1 C 0 km/h
498 24-11-2019 17:25:00 4.1 C 6.21 g/m*3 4.1 C 0 km/h
499 24-11-2019 17:30:00 3.9 C 6.13 g/m*3 3.9 C 0 km/h
500 24-11-2019 17:35:00 3.8 C 6.09 g/m*3 3.8 C 0 km/h
Sensor: Nr:Datum:Temp:Abs-Feuchte:Windchill:Wind:
Aussen-T/F 501 24-11-2019 17:40:00 3.8 C 6.09 g/m*3 3.8 C 0 km/h
502 24-11-2019 17:45:00 3.7 C 6.04 g/m*3 3.7 C 0 km/h
503 24-11-2019 17:50:00 3.7 C 6.04 g/m*3 3.7 C 0 km/h
504 24-11-2019 17:55:00 3.6 C 6 g/m*3 3.6 C 0 km/h
505 24-11-2019 18:00:00 3.6 C 6 g/m*3 3.6 C 0 km/h
506 24-11-2019 18:05:00 3.6 C 6 g/m*3 3.6 C 0 km/h
507 24-11-2019 18:10:00 3.6 C 6 g/m*3 3.6 C 0 km/h
508 24-11-2019 18:15:00 3.7 C 6.04 g/m*3 3.7 C 0 km/h
509 24-11-2019 18:20:00 3.7 C 6.04 g/m*3 3.7 C 0 km/h
510 24-11-2019 18:25:00 3.6 C 6 g/m*3 3.6 C 0 km/h
511 24-11-2019 18:30:00 3.6 C 6 g/m*3 3.6 C 0 km/h
512 24-11-2019 18:35:00 3.7 C 6.04 g/m*3 3.7 C 0 km/h
513 24-11-2019 18:40:00 3.6 C 6 g/m*3 3.6 C 0 km/h
514 24-11-2019 18:45:00 3.6 C 6 g/m*3 3.6 C 0 km/h
515 24-11-2019 18:50:00 3.6 C 6 g/m*3 3.6 C 0 km/h
516 24-11-2019 18:55:00 3.6 C 6 g/m*3 3.6 C 0 km/h
517 24-11-2019 19:00:00 3.5 C 5.96 g/m*3 3.5 C 0 km/h
518 24-11-2019 19:05:00 3.5 C 5.96 g/m*3 3.5 C 0 km/h
519 24-11-2019 19:10:00 3.4 C 5.92 g/m*3 3.4 C 0 km/h
520 24-11-2019 19:15:00 3.5 C 5.96 g/m*3 3.5 C 0 km/h
521 24-11-2019 19:20:00 3.5 C 5.96 g/m*3 3.5 C 0 km/h
522 24-11-2019 19:25:00 3.6 C 6 g/m*3 3.6 C 0 km/h
523 24-11-2019 19:30:00 3.6 C 6 g/m*3 3.6 C 0 km/h
524 24-11-2019 19:35:00 3.6 C 6 g/m*3 3.6 C 0 km/h
525 24-11-2019 19:40:00 3.6 C 6 g/m*3 3.6 C 0 km/h
Sensor: Nr:Datum:Temp:Abs-Feuchte:Windchill:Wind:
Aussen-T/F 526 24-11-2019 19:45:00 3.6 C 6 g/m*3 3.6 C 0 km/h
527 24-11-2019 19:50:00 3.6 C 6 g/m*3 3.6 C 0 km/h
528 24-11-2019 19:55:00 3.6 C 6 g/m*3 3.6 C 0 km/h
529 24-11-2019 20:00:00 3.6 C 6 g/m*3 3.6 C 0 km/h
530 24-11-2019 20:05:00 3.5 C 5.96 g/m*3 3.5 C 0 km/h
531 24-11-2019 20:10:00 3.5 C 5.96 g/m*3 3.5 C 0 km/h
532 24-11-2019 20:15:00 3.4 C 5.92 g/m*3 3.4 C 0 km/h
533 24-11-2019 20:20:00 3.3 C 5.88 g/m*3 3.3 C 0 km/h
534 24-11-2019 20:25:00 3.2 C 5.85 g/m*3 3.2 C 0 km/h
535 24-11-2019 20:30:00 3.1 C 5.81 g/m*3 3.1 C 0 km/h
536 24-11-2019 20:35:00 3 C 5.77 g/m*3 3 C 0 km/h
537 24-11-2019 20:40:00 2.9 C 5.73 g/m*3 2.9 C 0 km/h
538 24-11-2019 20:45:00 2.9 C 5.73 g/m*3 2.9 C 0 km/h
539 24-11-2019 20:50:00 3 C 5.77 g/m*3 3 C 0 km/h
540 24-11-2019 20:55:00 3.2 C 5.85 g/m*3 3.2 C 0 km/h
541 24-11-2019 21:00:00 3.2 C 5.85 g/m*3 3.2 C 0 km/h
542 24-11-2019 21:05:00 3.1 C 5.81 g/m*3 3.1 C 0 km/h
543 24-11-2019 21:10:00 3 C 5.77 g/m*3 3 C 0 km/h
544 24-11-2019 21:15:00 3 C 5.77 g/m*3 3 C 0 km/h
545 24-11-2019 21:20:00 3 C 5.77 g/m*3 3 C 0 km/h
546 24-11-2019 21:25:00 3 C 5.77 g/m*3 3 C 0 km/h
547 24-11-2019 21:30:00 2.9 C 5.73 g/m*3 2.9 C 0 km/h
548 24-11-2019 21:35:00 2.9 C 5.73 g/m*3 2.9 C 0 km/h
549 24-11-2019 21:40:00 2.9 C 5.73 g/m*3 2.9 C 0 km/h
550 24-11-2019 21:45:00 2.9 C 5.73 g/m*3 2.9 C 0 km/h
Sensor: Nr:Datum:Temp:Abs-Feuchte:Windchill:Wind:
Aussen-T/F 551 24-11-2019 21:50:00 3 C 5.77 g/m*3 3 C 0 km/h
552 24-11-2019 21:55:00 3.1 C 5.87 g/m*3 3.1 C 0 km/h
553 24-11-2019 22:00:00 3.1 C 5.87 g/m*3 3.1 C 0 km/h
554 24-11-2019 22:05:00 2.9 C 5.73 g/m*3 2.9 C 0 km/h
555 24-11-2019 22:10:00 2.7 C 5.65 g/m*3 2.7 C 0 km/h
556 24-11-2019 22:15:00 2.6 C 5.61 g/m*3 2.6 C 0 km/h
557 24-11-2019 22:20:00 2.4 C 5.54 g/m*3 2.4 C 0 km/h
558 24-11-2019 22:25:00 2.3 C 5.5 g/m*3 2.3 C 0 km/h
559 24-11-2019 22:30:00 2.3 C 5.5 g/m*3 2.3 C 0 km/h
560 24-11-2019 22:35:00 2.4 C 5.54 g/m*3 2.4 C 0 km/h
561 24-11-2019 22:40:00 2.3 C 5.5 g/m*3 2.3 C 0 km/h
562 24-11-2019 22:45:00 2.3 C 5.5 g/m*3 2.3 C 0 km/h
563 24-11-2019 22:50:00 2.2 C 5.46 g/m*3 2.2 C 0 km/h
564 24-11-2019 22:55:00 2.3 C 5.5 g/m*3 2.3 C 0 km/h
565 24-11-2019 23:00:00 2.4 C 5.54 g/m*3 2.4 C 0 km/h
566 24-11-2019 23:05:00 2.5 C 5.63 g/m*3 2.5 C 0 km/h
567 24-11-2019 23:10:00 2.4 C 5.6 g/m*3 2.4 C 0 km/h
568 24-11-2019 23:15:00 2.3 C 5.5 g/m*3 2.3 C 0 km/h
569 24-11-2019 23:20:00 2.2 C 5.46 g/m*3 2.2 C 0 km/h
570 24-11-2019 23:25:00 2.1 C 5.43 g/m*3 2.1 C 0 km/h
571 24-11-2019 23:30:00 2 C 5.39 g/m*3 2 C 0 km/h
572 24-11-2019 23:35:00 1.9 C 5.35 g/m*3 1.9 C 0 km/h
573 24-11-2019 23:40:00 1.9 C 5.35 g/m*3 1.9 C 0 km/h
574 24-11-2019 23:45:00 1.9 C 5.35 g/m*3 1.9 C 0 km/h
575 24-11-2019 23:50:00 1.9 C 5.35 g/m*3 1.9 C 0 km/h
Sensor: Nr:Datum:Temp:Abs-Feuchte:Windchill:Wind:
Aussen-T/F 576 24-11-2019 23:55:00 1.9 C 5.35 g/m*3 1.9 C 0 km/h

Legende:
   Min
   Max


Maximal/Minimal-Werte vom 23.11.2019 - 24.11.2019

Sensor Min Max Avg
Temp
(Aussen-T/F)
0.9 °C
24-11-2019  07:50:00
8.7 °C
23-11-2019  15:35:00
4.14 °C
Abs-Feuchte
(Aussen-T/F)
5 g/m*3
24-11-2019  07:50:00
7.62 g/m*3
23-11-2019  15:10:00
6.12 g/m*3
Windchill
(Aussen-T/F)
0.9 C
24-11-2019  07:50:00
8.7 C
23-11-2019  15:40:00
4.09 C

Die Daten stammen von einer Davis Vantage Pro 2 Wetter-Station und werden unter Linux mit der Software wview2wettercgi und aufbereitet. Alle Angaben erfolgen ohne Gewähr für ihre Vollständigkeit oder Richtigkeit.
Kontakt: Rainer Krienke krienke@uni-koblenz.de . Meine Webseiten an der Uni Koblenz oder privat.
Version: $Revision: 0.78 $